• In Hungary
  • List of Countries
  • For 7 days
  • Water Temperature
  • Satellite Maps
  • Weather Map
  • News
  • Weather Widgets
  • user-avatar
    Login

    Hourly Weather Klagenfurt

    Today, 22 February, Thursday

    Time Temperature Precipitation Wind Pressure Humidity
    00:00 -4°C° 0.2 mm 2 mps 684 mmHg 88%
    01:00 -5°C° 0 mm 2 mps 684 mmHg 89%
    02:00 -5°C° 0.4 mm 2 mps 684 mmHg 89%
    03:00 -5°C° 0.4 mm 2 mps 684 mmHg 89%
    04:00 -6°C° 0.4 mm 3 mps 683 mmHg 89%
    05:00 -5°C° 0.6 mm 2 mps 683 mmHg 90%
    06:00 -5°C° 0.6 mm 2 mps 683 mmHg 90%
    07:00 -7°C° 0 mm 4 mps 683 mmHg 90%
    08:00 -5°C° 0.8 mm 3 mps 683 mmHg 90%
    09:00 -5°C° 0.8 mm 3 mps 684 mmHg 89%
    10:00 -5°C° 0.8 mm 3 mps 684 mmHg 88%
    11:00 -4°C° 0.4 mm 3 mps 684 mmHg 87%
    12:00 -4°C° 0.4 mm 3 mps 684 mmHg 86%
    13:00 -2°C° 0.4 mm 3 mps 684 mmHg 85%
    14:00 -2°C° 0.3 mm 3 mps 684 mmHg 86%
    15:00 -2°C° 0.3 mm 2 mps 684 mmHg 86%
    16:00 -2°C° 0.3 mm 2 mps 684 mmHg 86%
    17:00 -3°C° 0.1 mm 2 mps 684 mmHg 88%
    18:00 -4°C° 0.1 mm 2 mps 684 mmHg 90%
    19:00 -5°C° 0.1 mm 2 mps 684 mmHg 93%
    20:00 -5°C° 0.1 mm 2 mps 684 mmHg 93%
    21:00 -5°C° 0.1 mm 2 mps 685 mmHg 93%
    22:00 -6°C° 0.1 mm 2 mps 685 mmHg 93%
    23:00 -6°C° 0.2 mm 2 mps 685 mmHg 92%

    Tomorrow, 23 February, Friday

    Time Temperature Precipitation Wind Pressure Humidity
    00:00 -6°C° 0.2 mm 2 mps 685 mmHg 92%
    01:00 -6°C° 0.2 mm 2 mps 685 mmHg 92%
    02:00 -6°C° 0.2 mm 2 mps 684 mmHg 92%
    03:00 -6°C° 0.2 mm 2 mps 684 mmHg 92%
    04:00 -6°C° 0.2 mm 2 mps 684 mmHg 91%
    05:00 -6°C° 0.3 mm 2 mps 684 mmHg 92%
    06:00 -6°C° 0.3 mm 2 mps 684 mmHg 92%
    07:00 -6°C° 0.3 mm 2 mps 684 mmHg 92%
    08:00 -5°C° 0.8 mm 2 mps 684 mmHg 91%
    09:00 -4°C° 0.8 mm 2 mps 684 mmHg 91%
    10:00 -3°C° 0.8 mm 2 mps 684 mmHg 91%
    11:00 -3°C° 1.1 mm 2 mps 685 mmHg 91%
    12:00 -2°C° 1.1 mm 2 mps 685 mmHg 91%
    13:00 -2°C° 1.1 mm 2 mps 685 mmHg 91%
    14:00 -1°C° 0.5 mm 2 mps 685 mmHg 90%
    15:00 -1°C° 0.5 mm 2 mps 685 mmHg 90%
    16:00 -1°C° 0.5 mm 2 mps 685 mmHg 90%
    17:00 -2°C° 0.1 mm 2 mps 685 mmHg 91%
    18:00 -3°C° 0.1 mm 2 mps 685 mmHg 92%
    19:00 -4°C° 0.1 mm 2 mps 685 mmHg 93%
    20:00 -4°C° 0 mm 2 mps 685 mmHg 93%
    21:00 -2°C° 0 mm 1 mps 686 mmHg 93%
    22:00 -2°C° 0 mm 1 mps 686 mmHg 93%
    23:00 -2°C° 0.1 mm 1 mps 686 mmHg 93%

    Day after tomorrow, 24 February, Saturday

    Time Temperature Precipitation Wind Pressure Humidity
    00:00 -2°C° 0.1 mm 1 mps 686 mmHg 93%
    01:00 -2°C° 0.1 mm 1 mps 686 mmHg 93%
    02:00 -2°C° 0 mm 1 mps 686 mmHg 93%
    03:00 -2°C° 0 mm 1 mps 686 mmHg 93%
    04:00 -2°C° 0 mm 1 mps 686 mmHg 93%
    05:00 -2°C° 0 mm 1 mps 686 mmHg 93%
    06:00 -2°C° 0 mm 1 mps 686 mmHg 93%
    07:00 -2°C° 0 mm 1 mps 686 mmHg 94%
    08:00 -3°C° 0 mm 2 mps 686 mmHg 92%
    09:00 -2°C° 0 mm 2 mps 686 mmHg 91%
    10:00 -1°C° 0 mm 2 mps 687 mmHg 90%
    11:00 -1°C° 0 mm 2 mps 687 mmHg 90%
    12:00 +1°C° 0 mm 2 mps 687 mmHg 90%
    13:00 +1°C° 0 mm 2 mps 686 mmHg 90%
    14:00 +1°C° 0.1 mm 2 mps 686 mmHg 89%
    15:00 -1°C° 0.1 mm 2 mps 686 mmHg 89%
    16:00 -1°C° 0.1 mm 3 mps 686 mmHg 89%
    17:00 -2°C° 0 mm 2 mps 686 mmHg 90%
    18:00 -3°C° 0 mm 2 mps 686 mmHg 91%
    19:00 -4°C° 0 mm 2 mps 686 mmHg 92%
    20:00 -5°C° 0 mm 2 mps 687 mmHg 92%
    21:00 -6°C° 0 mm 2 mps 687 mmHg 91%
    22:00 -7°C° 0 mm 2 mps 687 mmHg 91%
    23:00 -8°C° 0 mm 2 mps 687 mmHg 90%

    25 February, Sunday

    Time Temperature Precipitation Wind Pressure Humidity
    00:00 -8°C° 0 mm 2 mps 687 mmHg 90%
    01:00 -9°C° 0 mm 2 mps 687 mmHg 89%
    02:00 -10°C° 0 mm 2 mps 687 mmHg 89%
    03:00 -10°C° 0 mm 2 mps 686 mmHg 88%
    04:00 -12°C° 0 mm 2 mps 686 mmHg 88%
    05:00 -12°C° 0 mm 2 mps 686 mmHg 87%
    06:00 -12°C° 0 mm 2 mps 686 mmHg 87%
    07:00 -13°C° 0 mm 3 mps 687 mmHg 87%
    08:00 -12°C° 0 mm 3 mps 687 mmHg 85%
    09:00 -12°C° 0 mm 3 mps 687 mmHg 83%
    10:00 -10°C° 0 mm 3 mps 687 mmHg 81%
    11:00 -10°C° 0.1 mm 3 mps 687 mmHg 80%
    12:00 -9°C° 0.1 mm 3 mps 687 mmHg 79%
    13:00 -9°C° 0.1 mm 3 mps 687 mmHg 79%
    14:00 -9°C° 0.1 mm 3 mps 686 mmHg 79%
    15:00 -10°C° 0.1 mm 3 mps 686 mmHg 80%
    16:00 -10°C° 0.1 mm 3 mps 686 mmHg 80%
    17:00 -10°C° 0.1 mm 3 mps 686 mmHg 82%
    18:00 -12°C° 0.1 mm 3 mps 686 mmHg 83%
    19:00 -13°C° 0.1 mm 3 mps 686 mmHg 85%
    20:00 -13°C° 0.1 mm 3 mps 686 mmHg 85%
    21:00 -13°C° 0.1 mm 3 mps 686 mmHg 85%
    22:00 -14°C° 0.1 mm 3 mps 686 mmHg 85%
    23:00 -14°C° 0.1 mm 3 mps 685 mmHg 85%

    26 February, Monday

    Time Temperature Precipitation Wind Pressure Humidity
    00:00 -14°C° 0.1 mm 3 mps 685 mmHg 85%
    01:00 -14°C° 0.1 mm 3 mps 684 mmHg 85%
    02:00 -14°C° 0.1 mm 3 mps 684 mmHg 85%
    03:00 -15°C° 0.1 mm 3 mps 684 mmHg 85%
    04:00 -15°C° 0.1 mm 3 mps 683 mmHg 85%
    05:00 -15°C° 0.1 mm 3 mps 683 mmHg 85%
    06:00 -15°C° 0.1 mm 3 mps 683 mmHg 84%
    07:00 -15°C° 0.1 mm 3 mps 683 mmHg 84%
    08:00 -14°C° 0.1 mm 3 mps 683 mmHg 81%
    09:00 -13°C° 0.1 mm 3 mps 683 mmHg 78%
    10:00 -12°C° 0.1 mm 3 mps 683 mmHg 75%
    11:00 -12°C° 0.1 mm 3 mps 682 mmHg 75%
    12:00 -11°C° 0.1 mm 4 mps 682 mmHg 75%
    13:00 -10°C° 0.1 mm 4 mps 682 mmHg 75%
    14:00 -10°C° 0.1 mm 4 mps 682 mmHg 76%
    15:00 -10°C° 0.1 mm 4 mps 682 mmHg 77%
    16:00 -10°C° 0.1 mm 4 mps 681 mmHg 78%
    17:00 -10°C° 0.1 mm 3 mps 681 mmHg 81%
    18:00 -12°C° 0.1 mm 3 mps 681 mmHg 83%
    19:00 -10°C° 0.1 mm 2 mps 681 mmHg 86%
    20:00 -12°C° 0.1 mm 2 mps 681 mmHg 86%
    21:00 -12°C° 0.1 mm 2 mps 681 mmHg 87%
    22:00 -12°C° 0.1 mm 2 mps 681 mmHg 87%
    23:00 -12°C° 0.1 mm 2 mps 681 mmHg 87%

    27 February, Tuesday

    Time Temperature Precipitation Wind Pressure Humidity
    00:00 -13°C° 0.1 mm 2 mps 681 mmHg 87%
    01:00 -13°C° 0.1 mm 2 mps 681 mmHg 87%
    02:00 -13°C° 0.1 mm 2 mps 681 mmHg 87%
    03:00 -13°C° 0.1 mm 2 mps 681 mmHg 87%
    04:00 -13°C° 0.1 mm 2 mps 680 mmHg 87%
    05:00 -12°C° 0.1 mm 1 mps 681 mmHg 87%
    06:00 -12°C° 0.1 mm 1 mps 681 mmHg 87%
    07:00 -12°C° 0.1 mm 1 mps 681 mmHg 87%
    08:00 -11°C° 0.1 mm 1 mps 681 mmHg 83%
    09:00 -12°C° 0.1 mm 2 mps 681 mmHg 79%
    10:00 -10°C° 0.1 mm 2 mps 682 mmHg 75%
    11:00 -8°C° 0.1 mm 1 mps 682 mmHg 73%
    12:00 -7°C° 0.1 mm 1 mps 682 mmHg 71%
    13:00 -6°C° 0.1 mm 1 mps 682 mmHg 69%
    14:00 -6°C° 0.1 mm 1 mps 682 mmHg 70%
    15:00 -6°C° 0.1 mm 1 mps 682 mmHg 72%
    16:00 -6°C° 0.1 mm 1 mps 682 mmHg 74%
    17:00 -7°C° 0.1 mm 1 mps 682 mmHg 79%
    18:00 -8°C° 0.1 mm 1 mps 683 mmHg 84%
    19:00 -9°C° 0.1 mm 1 mps 683 mmHg 88%
    20:00 -10°C° 0.1 mm 1 mps 683 mmHg 89%
    21:00 -10°C° 0.1 mm 1 mps 684 mmHg 89%
    22:00 -11°C° 0.1 mm 1 mps 684 mmHg 89%
    23:00 -12°C° 0 mm 1 mps 684 mmHg 89%
    Show more